Weather History for Toledo, OH

Change the Weather History Date:

Wednesday, March 12, 2014

  Actual Average Record
Temperature  
Mean Temperature 24 °F 36 °F  
Max Temperature 40 °F 45 °F 76 °F (1990)
Min Temperature 8 °F 27 °F -10 °F (1948)
Degree Days  
Heating Degree Days 41 29  
Month to date heating degree days 494 372  
Since 1 July heating degree days 5820 4948  
Cooling Degree Days 0 0  
Month to date cooling degree days 0 0  
Year to date cooling degree days 0 0  
Moisture  
Dew Point 23 °F    
Average Humidity 83    
Maximum Humidity 100    
Minimum Humidity 66    
Precipitation  
Precipitation 0.73 in 0.07 in 1.32 in (2012)
Month to date precipitation 1.15 0.90  
Year to date precipitation 8.33 5.02  
Snow  
Snow 7.00 in 0.30 in - ()
Month to date snowfall 11.3 2.9  
Since 1 July snowfall 84.8 33.4  
Snow Depth 2.00 in    
Sea Level Pressure  
Sea Level Pressure 29.67 in    
Wind  
Wind Speed 16 mph (NNE)    
Max Wind Speed 30 mph    
Max Gust Speed 40 mph    
Visibility 5 miles    
Events Fog , Snow    
T = Trace of Precipitation, MM = Missing Value Source: NWS Daily Summary

Daily Weather History Graph

Daily Weather History Graph

Search for Another Location

Airport:

Trip Planner

Search our weather history database for the weather conditions in past years. The results will help you decide how hot, cold, wet, or windy it might be!

Date:

Astronomy

Mar. 12, 2014 Rise Set
Actual Time 7:52 AM EDT 7:38 PM EDT
Civil Twilight 7:24 AM EDT 8:06 PM EDT
Nautical Twilight 6:52 AM EDT 8:38 PM EDT
Astronomical Twilight 6:19 AM EDT 9:10 PM EDT
Moon 4:06 PM EDT (3/12) 5:25 AM EDT (3/12)
Length of Visible Light 12h 41m
Length of Day
11h 46m
Waxing Gibbous, 85% of the Moon is Illuminated
Mar 12
Waxing Gibbous
Mar 16
Full
Mar 23
Last Quarter
Mar 30
New
Apr 7
First Quarter

Hourly Weather History & Observations

Time (EDT) Temp. Windchill Dew Point Humidity Pressure Visibility Wind Dir Wind Speed Gust Speed Precip Events Conditions
12:52 AM 39.9 °F 33.9 °F 35.1 °F 83% 29.68 in 10.0 mi NE 9.2 mph - N/A   Mostly Cloudy
1:52 AM 39.0 °F 30.3 °F 35.1 °F 86% 29.63 in 10.0 mi ENE 16.1 mph - N/A   Overcast
2:07 AM 39.2 °F 30.8 °F 35.6 °F 87% 29.62 in 10.0 mi ENE 15.0 mph 23.0 mph N/A   Overcast
2:42 AM 35.6 °F 25.9 °F 32.0 °F 87% 29.62 in 10.0 mi ENE 16.1 mph 26.5 mph N/A   Overcast
2:52 AM 35.1 °F 23.8 °F 32.0 °F 89% 29.62 in 10.0 mi NE 20.7 mph 25.3 mph N/A   Overcast
3:52 AM 34.0 °F 23.4 °F 30.0 °F 85% 29.60 in 10.0 mi ENE 17.3 mph 25.3 mph N/A   Overcast
4:43 AM 33.8 °F 22.8 °F 28.4 °F 81% 29.54 in 10.0 mi NE 18.4 mph 24.2 mph N/A   Overcast
4:52 AM 33.1 °F 20.3 °F 28.0 °F 82% 29.55 in 10.0 mi NE 24.2 mph - N/A   Overcast
5:52 AM 30.9 °F 19.4 °F 27.0 °F 85% 29.53 in 3.0 mi NNE 17.3 mph 24.2 mph 0.02 in Snow Light Snow
6:02 AM 30.2 °F 19.3 °F 26.6 °F 86% 29.52 in 2.5 mi NNE 15.0 mph 24.2 mph 0.00 in Snow Light Snow
6:10 AM 30.2 °F 17.8 °F 28.4 °F 93% 29.52 in 1.8 mi NNE 19.6 mph 26.5 mph 0.02 in Snow Light Snow
6:26 AM 30.2 °F 19.8 °F 28.4 °F 93% 29.53 in 1.2 mi NNE 13.8 mph 25.3 mph 0.04 in Snow Light Snow
6:35 AM 30.2 °F 18.5 °F 28.4 °F 93% 29.53 in 1.2 mi NNE 17.3 mph - 0.06 in Snow Light Snow
6:52 AM 28.9 °F 15.8 °F 28.0 °F 96% 29.54 in 1.0 mi NNE 20.7 mph 25.3 mph 0.08 in Snow Light Snow
7:02 AM 28.4 °F 15.8 °F 28.4 °F 100% 29.53 in 0.5 mi North 18.4 mph 28.8 mph 0.02 in Snow Light Snow
7:19 AM 28.4 °F 14.4 °F 28.4 °F 100% 29.52 in 0.5 mi North 23.0 mph 32.2 mph 0.04 in Fog , Snow Snow
7:52 AM 28.9 °F 16.9 °F 28.0 °F 96% 29.53 in 0.2 mi North 17.3 mph 29.9 mph 0.13 in Snow Light Snow
8:41 AM 28.4 °F 14.4 °F 26.6 °F 93% 29.52 in 0.2 mi North 23.0 mph 32.2 mph 0.07 in Fog , Snow Snow
8:52 AM 28.9 °F 15.1 °F 28.0 °F 96% 29.54 in 0.2 mi North 23.0 mph 32.2 mph 0.08 in Fog Light Freezing Fog
9:52 AM 28.9 °F 17.3 °F 28.0 °F 96% 29.53 in 0.2 mi NNE 16.1 mph 24.2 mph 0.06 in Snow Light Snow
10:52 AM 28.9 °F 16.5 °F 28.0 °F 96% 29.53 in 0.2 mi North 18.4 mph 26.5 mph 0.05 in Snow Light Snow
11:52 AM 28.9 °F 17.3 °F 27.0 °F 92% 29.57 in 0.2 mi North 16.1 mph 34.5 mph 0.02 in Snow Light Snow
12:02 PM 28.4 °F 14.4 °F 26.6 °F 93% 29.55 in 0.2 mi North 23.0 mph 35.7 mph 0.00 in   Overcast
12:52 PM 28.0 °F 14.6 °F 26.1 °F 92% 29.61 in 0.2 mi North 20.7 mph 32.2 mph 0.03 in Fog Light Freezing Fog
1:33 PM 26.6 °F 12.0 °F 24.8 °F 93% 29.62 in 0.2 mi NNW 23.0 mph 31.1 mph 0.01 in   Overcast
1:52 PM 24.1 °F 8.0 °F 21.0 °F 88% 29.67 in 0.2 mi North 25.3 mph 40.3 mph 0.01 in   Overcast
2:52 PM 24.1 °F 11.0 °F 19.0 °F 81% 29.71 in 0.2 mi NNW 16.1 mph 29.9 mph N/A   Haze
3:52 PM 23.0 °F 8.7 °F 18.0 °F 81% 29.76 in 0.2 mi NNW 18.4 mph 25.3 mph N/A   Haze
4:08 PM 23.0 °F 8.7 °F 15.8 °F 74% 29.75 in 9.0 mi North 18.4 mph 31.1 mph N/A   Overcast
4:52 PM 21.9 °F 8.2 °F 14.0 °F 72% 29.82 in 10.0 mi North 16.1 mph 24.2 mph N/A   Scattered Clouds
5:52 PM 21.9 °F 8.2 °F 12.0 °F 66% 29.87 in 9.0 mi NNW 16.1 mph 24.2 mph 0.00 in Snow Light Snow
6:52 PM 19.0 °F 6.1 °F 10.0 °F 68% 29.92 in 8.0 mi North 12.7 mph - 0.00 in Snow Light Snow
7:52 PM 17.1 °F 5.0 °F 9.0 °F 71% 29.96 in 9.0 mi North 10.4 mph - 0.00 in Snow Light Snow
8:52 PM 15.1 °F 4.2 °F 7.0 °F 70% 29.98 in 9.0 mi North 8.1 mph - 0.00 in   Clear
9:52 PM 14.0 °F 2.0 °F 5.0 °F 67% 30.01 in 9.0 mi North 9.2 mph - N/A   Clear
10:52 PM 12.9 °F 2.6 °F 5.0 °F 71% 30.03 in 9.0 mi North 6.9 mph - N/A   Clear
11:52 PM 10.9 °F 1.4 °F 1.9 °F 67% 30.05 in 9.0 mi North 5.8 mph - N/A   Clear